Printer-friendly version

IAU Minor Planet Center

Minor Planet Center

MPEC 2003-G47 : COMET C/2002 Y1 (JUELS-HOLVORCEM)

The following Minor Planet Electronic Circular may be linked-to from your own Web pages, but must not otherwise be redistributed electronically.


Read MPEC 2003-G46 Read MPEC 2003-G48


M.P.E.C. 2003-G47                                Issued 2003 Apr.  9, 19:34 UT

     The Minor Planet Electronic Circulars contain information on unusual
         minor planets and routine data on comets.  They are published
   on behalf of Commission 20 of the International Astronomical Union by the
          Minor Planet Center, Smithsonian Astrophysical Observatory,
                          Cambridge, MA 02138, U.S.A.

             Prepared using the Tamkin Foundation Computer Network

                              MPC@CFA.HARVARD.EDU
          URL http://cfa-www.harvard.edu/iau/mpc.html  ISSN 1523-6714

                       COMET C/2002 Y1 (JUELS-HOLVORCEM)

Observations:
    CK02Y010  C2003 03 07.82939 22 20 52.56 +52 58 51.7                      349
    CK02Y010  C2003 03 07.83031 22 20 52.98 +52 58 49.0                      349
    CK02Y010  C2003 03 07.83766 22 20 56.37 +52 58 27.2                      349
    CK02Y010  C2003 03 07.83816 22 20 56.59 +52 58 25.8                      349
    CK02Y010  C2003 03 07.83868 22 20 56.83 +52 58 24.3           7.9 T      349
    CK02Y010  C2003 03 09.84434 22 35 20.14 +51 18 16.7           8.0 T      349
    CK02Y010  C2003 03 09.84471 22 35 20.33 +51 18 15.2                      349
    CK02Y010  C2003 03 09.84509 22 35 20.47 +51 18 14.5                      349
    CK02Y010  C2003 03 09.84547 22 35 20.63 +51 18 12.9                      349
    CK02Y010  C2003 03 19.80690 23 25 54.64 +43 07 58.9                      349
    CK02Y010  C2003 03 19.80788 23 25 54.87 +43 07 56.1                      349
    CK02Y010  C2003 03 19.80989 23 25 55.32 +43 07 50.4                      349
    CK02Y010  C2003 03 19.81038 23 25 55.44 +43 07 49.1                      349
    CK02Y010  C2003 03 19.81087 23 25 55.57 +43 07 47.6           7.7 T      349
    CK02Y010  C2003 03 26.81873 23 48 46.06 +37 45 02.4                      349
    CK02Y010  C2003 03 26.81923 23 48 46.17 +37 45 00.9                      349
    CK02Y010  C2003 03 26.82072 23 48 46.43 +37 44 57.2                      349
    CK02Y010  C2003 03 26.82170 23 48 46.57 +37 44 54.5                      349
    CK02Y010  C2003 03 26.82219 23 48 46.66 +37 44 53.5           8.3 T      349
    CK02Y010  C2003 03 29.80780 23 56 40.68 +35 32 25.4                      349
    CK02Y010  C2003 03 29.80928 23 56 40.94 +35 32 21.3                      349
    CK02Y010  C2003 03 29.81042 23 56 41.10 +35 32 18.4                      349
    CK02Y010  C2003 03 29.81181 23 56 41.31 +35 32 14.9                      349
    CK02Y010  C2003 03 29.81304 23 56 41.48 +35 32 11.8           7.6 T      349

Observer details:
349 Ageo.  Observer K. Kadota.  0.25-m f/5.0 reflector + CCD.

Orbital elements:
    C/2002 Y1 (Juels-Holvorcem)
Epoch 2003 May 1.0 TT = JDT 2452760.5
T 2003 Apr. 13.24832 TT                                 MPC
q   0.7138055            (2000.0)            P               Q
z  +0.0039776      Peri.  128.81649     +0.65299882     +0.72116558
 +/-0.0000152      Node   166.22052     -0.27259143     -0.06117261
e   0.9971608      Incl.  103.78189     +0.70660204     -0.69005660
From 705 observations 2002 Dec. 29-2003 Mar. 29, mean residual 0".54.

     The "original" and "future" barycentric values of 1/a are +0.004108
and +0.004502 (+/- 0.000015) AU**-1, respectively.

Brian G. Marsden             (C) Copyright 2003 MPC           M.P.E.C. 2003-G47

Read MPEC 2003-G46 Read MPEC 2003-G48


Our Web policy. Index to the CBAT/MPC/ICQ pages.


Valid HTML 4.01!